Fort Wayne Police Department
Fort Wayne Police Department
Emergencies Call: 911
Non-Emergencies: (260) 427-1222
report drug house

Daily Activity Logs

Activity Log for August 15, 2013 Community Search

Incident Time Nature Address
13F120331 00:02:10 30 TRAFFIC STOP 7800 JEFFERSON BLVD W
13F120332 00:02:20 48 SUSPICIOUS 2700 ABBOTT ST
13F120333 00:04:05 101 OPEN DOOR 6100 VANCE AVE
13F120334 00:04:15 63 CONTACT 00 COUNTRY FOREST DR
13F120335 00:06:13 30 TRAFFIC STOP 10300 FRITZ RD & DUPONT RD W
13F120336 00:14:51 46 DOMESTIC 4900 CHRISTOFER LN
13F120337 00:17:47 43 DISTURBANCE 2500 FOX AVE
13F120338 00:19:15 43 DISTURBANCE 1100 PACKARD AVE W
13F120341 00:33:15 46 DOMESTIC 1200 VANCE AVE
13F120339 00:33:36 48,36 3900 DANER DR & SOUTH DR
13F120340 00:37:19 EMS 7300 HICKORY CREEK DR
13F120342 00:41:36 911 HANG UP 2100 CARTERTON DR
13F120343 00:43:10 44LM 4600 HANNA ST S
13F120346 00:46:17 48,35 3800 NEWPORT AVE
13F120344 00:48:21 30 TRAFFIC STOP 100 BAKER ST E & CLINTON ST S
13F120345 00:49:30 108 FOLLOWUP 3500 PORTAGE BLVD
13F120348 00:55:05 43 DISTURBANCE 800 HUESTIS AVE
13F120352 00:56:04 911 HANG UP 2900 WESTBROOK DR
13F120351 00:57:17 22I JUV INVEST 12100 BURNING TREE RD & THORNAPPLE
13F120349 00:57:33 911 HANG UP 1000 STUART AVE
13F120350 00:59:10 16V PICKUP VID 00 MAIN ST E
13F120354 01:11:40 30 TRAFFIC STOP 3800 LAFAYETTE ST S & RUDISILL BLV
13F120355 01:12:27 30 TRAFFIC STOP 2700 STATE BLVD E & BEACON ST
13F120356 01:12:51 30 TRAFFIC STOP 1800 AIRPORT EXPRESSWAY
13F120357 01:19:58 30 TRAFFIC STOP 2800 ANTHONY BLVD N & KENWOOD AVE
13F120358 01:31:52 48 SUSPICIOUS 5300 REED ST
13F120359 01:33:14 43 DISTURBANCE 1000 OAKLAND ST
13F120360 01:41:33 44LM 2500 WINCH ST
13F120361 01:51:01 48 SUSPICIOUS 2800 CENTRAL DR
13F120362 01:56:39 30 TRAFFIC STOP 1400 ANTHONY BLVD N & LAKE AVE
13F120363 01:57:35 48 SUSPICIOUS 2100 DREXEL AVE & ALEXANDER ST
13F120364 01:58:42 14 WARRANT 400 DEWALD ST E
13F120365 02:14:47 50,ATTEMPTED 4900 MOUNT VERNON PARK DR
13F120366 02:18:05 911 HANG UP 2600 MAULDIN DR
13F120367 02:27:43 911 HANG UP 3500 ROBINWOOD DR
13F120368 02:37:51 129 12200 GLEN LAKE DR & GLEN LAKE CT
13F120369 02:42:23 41 MAN DOWN 400 DALGREN AVE
13F120372 02:45:03 23 VANDALISM 3300 BROADWAY
13F120371 02:47:36 63 CONTACT 6000 LIMA RD
13F120370 02:48:47 46 DOMESTIC 2400 FAIRFIELD AVE
13F120374 02:54:15 25 PD ACCIDENT 30900 I 69 NB
13F120373 02:55:40 30 TRAFFIC STOP 1200 LAKE AVE & CRESCENT AVE
13F120375 03:02:24 15 ASSIST 2600 I 469 NB
13F120376 03:07:08 40A AUDIBLE 1600 NORTHLAND BLVD
13F120377 03:14:18 40A AUDIBLE 3400 COLISEUM BLVD W
13F120378 03:18:25 30 TRAFFIC STOP 4000 LAKE AVE & COLISEUM BLVD N
13F120379 03:20:33 48 SUSPICIOUS 800 PACKARD AVE W
13F120381 03:28:53 25HS HIT SKIP 1800 PARNELL AVE & ROMY AVE
13F120382 03:28:56 27 RECKLESS DRI 1200 GETZ RD & ILLINOIS RD
13F120380 03:29:34 30 TRAFFIC STOP 7300 HESSEN CASSEL RD & TILLMAN RD
13F120383 03:51:03 44 NUISANCE 3700 CENTRAL DR
13F120384 04:03:31 50IP BURG I/P 6100 VANCE AVE
13F120385 04:05:04 25 PD ACCIDENT 6900 JEFFERSON BLVD W & CHERRY LN
13F120386 04:06:37 46 DOMESTIC 1000 COLISEUM BLVD N
13F120387 04:11:19 30 TRAFFIC STOP 6700 BLUFFTON RD & LOWER HUNTINGTO
13F120388 04:24:17 911 HANG UP 2600 MAULDIN DR
13F120389 04:36:00 16V PICKUP VID 00 MAIN ST E
13F120390 04:37:39 44LM 3700 CENTRAL DR
13F120391 04:38:48 48 SUSPICIOUS 2500 COLISEUM BLVD S
13F120392 04:56:15 101 OPEN DOOR 2000 MONTFORD DR
13F120393 04:57:23 48 SUSPICIOUS 6000 SOUTHBEND DR & GETZ RD
13F120394 05:23:23 30 TRAFFIC STOP 7100 ST JOE RD & ASHLAND DR
13F120395 05:37:28 97 FOUND ITEMS 5900 ST JOE RD
13F120396 05:44:26 40A AUDIBLE 2500 WAYNE TRACE E
13F120397 05:54:04 16V PICKUP VID 00 MAIN ST E
13F120398 05:56:40 34 TRAFF HAZARD 6900 KINGSWOOD BLVD & JEFFERSON BL
13F120399 06:04:16 129 800 OWLS PT
13F120400 06:04:28 129 800 OWLS PT
13F120401 06:04:42 129 800 OWLS PT
13F120402 06:06:16 65T SUICIDE THR 1500 ANTHONY BLVD N
13F120403 06:20:55 28 DUI 00 MAIN ST E & CALHOUN ST S
13F120404 06:27:21 911 HANG UP 600 DUPONT RD E
13F120405 06:40:23 40A AUDIBLE 1300 SUMMIT ST
13F120406 06:45:53 40A AUDIBLE 3800 SUPERIOR RIDGE DR
13F120409 06:46:18 911 HANG UP 4500 WARSAW ST
13F120407 06:48:00 51,35 5400 ARCHWOOD LN
13F120408 06:48:30 51 THEFT 200 WILLIAMS ST W
13F120410 06:53:41 51 THEFT 5300 BELLMAWR LN
13F120411 06:54:03 46,96 10800 MILLSTONE DR
13F120412 07:09:46 16,97 4400 CALHOUN ST S
13F120413 07:16:23 30 TRAFFIC STOP 2000 CLINTON ST S & BUTLER ST E
13F120414 07:22:24 33,34 3100 HANNA ST S & DALMAN AVE
13F120416 07:33:35 23,113 2000 MONTFORD DR
13F120415 07:34:30 30 TRAFFIC STOP 3200 HARRISON ST S & PACKARD AVE W
13F120417 07:40:13 23,35 VAND VEH 700 PACKARD AVE W
13F120418 07:43:05 46,96 6700 LONDONDERRY LN
13F120419 07:46:14 129 5700 ARBOR AVE
13F120420 07:46:43 51,35 500 WALLACE ST E
13F120421 07:49:21 129 600 JEFFERSON BLVD W
13F120425 07:51:10 40A AUDIBLE 2200 SHERMAN BLVD
13F120422 07:51:32 30 TRAFFIC STOP 3800 LIMA RD & FERNHILL AVE W
13F120423 07:52:01 16,97 1400 PONTIAC ST E
13F120424 07:53:33 30 TRAFFIC STOP 200 COLISEUM BLVD W & SPEEDWAY DR
13F120426 07:55:56 25 PD ACCIDENT 7300 JEFFERSON BLVD W & ABOITE CEN
13F120427 07:59:50 40A AUDIBLE 1600 REED RD
13F120428 08:01:51 46,96 2100 MAUMEE AVE
13F120429 08:03:35 51 THEFT 3000 HOAGLAND AVE
13F120430 08:03:57 22RC RECOVERY 4300 KEKIONGA DR
13F120431 08:06:34 40A AUDIBLE 400 COLISEUM BLVD W
13F120432 08:10:32 33,34 1400 COLISEUM BLVD N & LAKE AVE
13F120434 08:13:26 43 DISTURBANCE 4100 WINTER ST
13F120435 08:13:31 911 HANG UP 4200 LYNWOOD CT
13F120433 08:13:42 108 FOLLOWUP 2500 WESTSTATE CT
13F120436 08:15:26 30 TRAFFIC STOP 6200 JEFFERSON BLVD W
13F120437 08:19:21 17 MOTOR CHECK 7300 VENTURE LN
13F120438 08:22:46 40A AUDIBLE 10600 OAK TRAIL RD
13F120439 08:26:09 40A AUDIBLE 2700 SHADY OAK DR
13F120440 08:29:25 51 THEFT 2900 STANFORD AVE
13F120443 08:32:44 15 ASSIST 7600 PINEDALE DR
13F120444 08:35:43 HARASSMENT 7300 BURNSDALE AVE
13F120445 08:36:44 51 THEFT 600 LEWIS ST E & HANNA ST S
13F120446 08:44:13 41,36 3000 BOARDWALK CIR
13F120447 08:44:40 15 ASSIST 4400 MANISTEE DR
13F120448 08:47:09 40H HOLDUP ALRM 300 SUPERIOR ST W
13F120449 08:52:50 911 HANG UP 4900 HEMLOCK LN
13F120450 08:56:08 33,34 300 WASHINGTON CENTER RD E & COLDW
13F120451 09:03:10 17 MOTOR CHECK 900 COLISEUM BLVD W
13F120452 09:09:53 46,96 700 CLINTON ST S & BERRY ST E
13F120453 09:11:10 911 HANG UP 2300 JACOBS CREEK RUN
13F120454 09:15:26 46 DOMESTIC 5400 CALHOUN ST S
13F120456 09:19:13 65T SUICIDE THR 5600 KOHART PL
13F120455 09:19:38 22I JUV INVEST 200 COUNTRY FOREST DR
13F120467 09:19:48 39 STOLEN VEHIC 1600 PEMBERTON DR
13F120457 09:20:20 46 DOMESTIC 2400 BARNHART AVE
13F120458 09:26:10 911 HANG UP 6200 STELLHORN RD
13F120459 09:32:53 14 WARRANT 4100 HANNA ST S
13F120460 09:33:19 63 CONTACT 2700 CAPITOL AVE
13F120461 09:36:32 911 HANG UP 7200 ST JOE RD
13F120462 09:37:27 LP LOST PROPERT 500 MAIN ST W
13F120463 09:47:28 40P PANIC ALARM 4000 WEISSER PARK AVE
13F120464 09:48:10 40H HOLDUP ALRM 500 COLISEUM BLVD E
13F120466 09:53:54 20 PROBLEM UNK 2500 BOWSER AVE
13F120469 09:57:02 911 HANG UP 300 WILDWOOD AVE W
13F120471 09:58:29 50 BURGLARY 1800 RIEDMILLER AVE
13F120470 10:02:56 25 PD ACCIDENT 3800 CALHOUN ST S & RUDISILL BLVD
13F120472 10:08:15 43 DISTURBANCE 3700 WASHINGTON BLVD E
13F120473 10:14:18 22I JUV INVEST 2500 DUPONT RD E
13F120474 10:17:40 51 THEFT 1800 CAREW ST
13F120475 10:18:56 TOW 2300 OLIVER ST & HURD ST
13F120476 10:21:02 33J LOCKED OUT 1100 THOMAS RD S
13F120477 10:22:29 911 HANG UP 00 VILLA CAPRI APTS & FOX POINT TR
13F120478 10:28:32 15 ASSIST 4300 STELLHORN RD
13F120479 10:33:34 39 STOLEN VEHIC 4700 INDUSTRIAL RD
13F120480 10:36:19 30 TRAFFIC STOP 200 COLISEUM BLVD W
13F120481 10:38:05 911 HANG UP 4000 FAIRFIELD AVE
13F120482 10:41:45 39 STOLEN VEHIC 2100 CALHOUN ST S & DEWALD ST E
13F120483 10:41:49 30 TRAFFIC STOP 5300 GOSHEN RD
13F120484 10:42:32 30 TRAFFIC STOP 2900 GOSHEN RD & COLISEUM BLVD W
13F120485 10:42:53 22I JUV INVEST 8000 CARNOVAN DR
13F120486 10:51:51 56 MOLESTING 900 COOK RD E
13F120487 10:52:13 30 TRAFFIC STOP 200 COLISEUM BLVD W & SPEEDWAY DR
13F120488 10:53:05 911 HANG UP 4900 BADE DR
13F120489 10:54:14 17 MOTOR CHECK 3000 WAYNE TRACE
13F120490 10:58:44 17R REREAD 2100 BEVEL AVE
13F120491 10:59:39 16,97 1800 LAKE AVE
13F120492 11:00:34 51,35 700 PACKARD AVE W
13F120493 11:02:56 30 TRAFFIC STOP 200 COLISEUM BLVD E
13F120495 11:03:01 33J LOCKED OUT 4200 COLDWATER RD
13F120494 11:03:11 51 THEFT 800 MILTON ST
13F120496 11:07:19 911 HANG UP 100 WASHINGTON CENTER RD W
13F120498 11:09:17 33J LOCKED OUT 4100 JEFFERSON BLVD W
13F120497 11:09:56 30 TRAFFIC STOP 900 STATE BLVD W & OAKLAND ST
13F120499 11:11:01 1 MEET 700 PAULDING RD E
13F120501 11:13:47 27 RECKLESS DRI 13300 US 27 S
13F120500 11:14:50 1 MEET 2400 CASS ST
13F120503 11:20:15 48 SUSPICIOUS 900 HAWTHORNE ST E
13F120504 11:22:25 44LM 100 COLUMBIA ST W
13F120502 11:23:10 23,35 VAND VEH 5400 SOUTHERN CT
13F120505 11:26:44 16V PICKUP VID 00 MAIN ST E
13F120506 11:28:52 911 HANG UP 6100 STELLHORN RD
13F120507 11:29:41 40H HOLDUP ALRM 10100 LIMA RD
13F120508 11:29:58 17 MOTOR CHECK 100 COLISEUM BLVD W
13F120509 11:31:55 911 HANG UP 2900 ANTHONY BLVD S
13F120510 11:33:24 911 HANG UP 2600 LOWER HUNTINGTON RD
13F120511 11:39:14 30 TRAFFIC STOP 400 CLINTON ST S & SUPERIOR ST E
13F120512 11:39:22 16V PICKUP VID 00 MAIN ST E
13F120514 11:42:33 48 SUSPICIOUS 1400 CLINTON ST N & FOURTH ST E
13F120513 11:43:20 30 TRAFFIC STOP 700 CLINTON ST S & BERRY ST E
13F120515 11:44:59 43 DISTURBANCE 800 HIGH ST
13F120516 11:45:21 15 ASSIST 100 LEITH ST W
13F120517 11:52:12 62 PARTY ARMED 2300 ABBEY DR
13F120518 11:57:53 14 WARRANT 3600 WINTER ST
13F120526 11:58:08 50 BURGLARY 2700 STINSON DR
13F120519 12:00:06 15 ASSIST 2600 BROOKLYN AVE
13F120520 12:00:14 911 HANG UP 3300 COLISEUM BLVD W
13F120521 12:03:10 911 HANG UP 6200 BLUFFTON RD
13F120522 12:04:32 46 DOMESTIC 00 MAIN ST E
13F120523 12:05:14 37 PARKING VIOL 5900 ARLENE AVE
13F120525 12:13:11 30 TRAFFIC STOP 500 LOCUST ST & FAIRFIELD AVE
13F120527 12:20:09 51JO 800 COLISEUM BLVD N
13F120532 12:28:13 44LM 2500 WINCH ST
13F120530 12:33:22 48 SUSPICIOUS 100 BERRY ST W
13F120529 12:35:07 911 HANG UP 800 CREIGHTON AVE W
13F120528 12:36:37 30 TRAFFIC STOP 9000 LIBERTY MILLS RD & JEFFERSON
13F120531 12:39:08 29 SPECIAL ASGN 00 MAIN ST E
13F120533 12:41:52 15 ASSIST 1300 LEWIS ST E
13F120534 12:44:15 911 HANG UP 1100 MCKINNIE AVE
13F120535 12:45:50 911 HANG UP 2400 BROOKLYN AVE
13F120536 12:49:56 40A AUDIBLE 7700 INVERNESS LAKES TRL
13F120537 12:52:09 15 ASSIST 2300 CLINTON ST S
13F120538 12:53:15 34 TRAFF HAZARD 2200 COLISEUM BLVD N & STATE BLVD
13F120540 12:56:13 47 REMOVE ITEMS 2900 COLISEUM BLVD W
13F120541 12:59:20 30 TRAFFIC STOP 2700 HOAGLAND AVE & ROSE LN
13F120543 13:02:00 63 CONTACT 30500 I 69 NB
13F120542 13:02:14 46 DOMESTIC 4000 HESSEN CASSEL RD
13F120544 13:08:06 48 SUSPICIOUS 1100 MAIN ST W
13F120545 13:08:11 46 DOMESTIC 2000 ELECTRIC AVE
13F120547 13:13:30 46 DOMESTIC 900 MAPLE GROVE AVE E & GAYWOOD DR
13F120546 13:14:15 911 HANG UP 4700 LIMA RD
13F120548 13:23:15 101 OPEN DOOR 2500 HARRISON ST S
13F120553 13:23:43 45 NEIGHBORHOOD 2500 FOX AVE
13F120668 13:25:22 1 MEET 2400 BARNHART AVE
13F120549 13:25:58 25 PD ACCIDENT 4700 STELLHORN RD & REED RD
13F120552 13:28:03 40P PANIC ALARM 2200 MAIN ST W
13F120550 13:28:25 48,36 100 GLENMOOR DR & SPRING FOREST DR
13F120551 13:30:06 51 THEFT 10000 DAWSONS CREEK BLVD
13F120554 13:31:56 25HS HIT SKIP 3500 ANTHONY BLVD N
13F120563 13:34:23 46 DOMESTIC 5800 SOUTHBEND DR
13F120555 13:36:33 30 TRAFFIC STOP 1700 PETTIT AVE E & ANTHONY BLVD S
13F120556 13:37:53 34 TRAFF HAZARD 800 STATE BLVD W & SHERMAN BLVD
13F120559 13:41:52 911 HANG UP 2800 LILLIE ST
13F120557 13:43:33 911 HANG UP 2700 FOX AVE
13F120558 13:45:21 51,35 400 MAPLE GROVE AVE W
13F120560 13:46:39 63 CONTACT 1400 STOPHLET ST
13F120561 13:49:23 40A AUDIBLE 6100 HYSTONE DR
13F120571 13:51:16 47 REMOVE ITEMS 600 STATE BLVD W
13F120567 13:54:58 43 DISTURBANCE 100 RUDISILL BLVD E
13F120564 13:55:13 911 HANG UP 5800 CROSS CREEK BLVD
13F120562 13:55:43 63Z ZACH CHECK 5500 STONEHILL CT
13F120565 13:55:58 40P PANIC ALARM 8200 FIELDCREST CT
13F120573 13:56:13 1 MEET 6400 OAKBROOK PKWY
13F120566 13:56:49 15 ASSIST 4900 FAIRINGTON DR
13F120569 13:57:50 911 HANG UP 1800 GRISWOLD DR
13F120570 13:59:14 48,36 3800 WAWONAISSA TRL
13F120568 13:59:48 16V PICKUP VID 00 MAIN ST E
13F120572 14:02:54 51,35 3000 LAKE AVE
13F120575 14:03:35 103 UNWANTED 1400 LAKE AVE
13F120574 14:05:16 108 FOLLOWUP 800 RIDGEWOOD DR
13F120576 14:09:16 23,35 VAND VEH 10100 LIMA RD
13F120577 14:10:39 48 SUSPICIOUS 1800 LAVERNE AVE
13F120578 14:13:37 51 THEFT 3000 WEBSTER ST
13F120579 14:15:51 40A AUDIBLE 3500 CALHOUN ST S
13F120580 14:16:12 63Z ZACH CHECK 1600 CARLOW CT
13F120581 14:19:40 43 DISTURBANCE 1000 CREIGHTON AVE W
13F120582 14:21:13 30 TRAFFIC STOP 1600 WALLEN RD W & LIMA RD
13F120583 14:21:47 22I JUV INVEST 4200 SOUTHWAYNE AVE
13F120584 14:30:21 23,35 VAND VEH 6900 MANGROVE LN
13F120586 14:34:04 129 6000 ALLENDALE CT
13F120597 14:34:34 108 FOLLOWUP 5400 COVENTRY LN
13F120587 14:36:38 30 TRAFFIC STOP 3500 CLINTON ST N
13F120588 14:39:06 51 THEFT 200 PETTIT AVE E
13F120589 14:40:33 1 MEET 1200 SPY RUN AVE
13F120590 14:41:34 30 TRAFFIC STOP 7400 SEILER RD
13F120592 14:42:27 46 DOMESTIC 600 FOURTH ST W
13F120591 14:43:23 48 SUSPICIOUS 600 LEWIS ST E
13F120600 14:44:13 108 FOLLOWUP 1200 ILLSLEY DR
13F120593 14:45:05 33,34 2200 COLISEUM BLVD N & STATE BLVD
13F120594 14:46:30 63Z ZACH CHECK 5900 SAWMILL WOODS DR
13F120595 14:48:03 40A AUDIBLE 2400 GAY ST
13F120596 14:50:15 51 THEFT DEWALD ST E
13F120599 14:51:57 50JO 3400 MONTAGNE DR
13F120598 14:52:55 30 TRAFFIC STOP 8200 JEFFERSON BLVD W & I 69 SB
13F120601 14:54:24 911 HANG UP 400 STATE BLVD E
13F120602 14:59:16 51 THEFT 3100 PARNELL AVE
13F120603 15:04:30 TOW 4100 WAYNE TRACE
13F120632 15:05:25 17 MOTOR CHECK 300 MASTERSON AVE W
13F120605 15:05:29 39JO 2800 CALHOUN ST S
13F120604 15:05:45 33,34 2400 PARNELL AVE & NETTIE AVE
13F120613 15:05:59 25 PD ACCIDENT 1000 FOREST AVE
13F120611 15:07:12 17 MOTOR CHECK 2500 PALISADE DR
13F120606 15:08:01 30 TRAFFIC STOP 6200 ROTHMAN RD & MAPLECREST RD
13F120607 15:08:24 43 DISTURBANCE 2800 GLENWOOD AVE
13F120608 15:13:19 46 DOMESTIC 2800 NORTHGATE BLVD
13F120609 15:13:58 51,35 9600 KILDARE XING
13F120617 15:15:47 43 DISTURBANCE 900 RIDGEWOOD DR
13F120610 15:15:57 39R STOLEN RECO 3000 COLISEUM BLVD W
13F120647 15:18:17 51 THEFT 300 SUPERIOR ST W
13F120615 15:19:51 46 DOMESTIC 100 DEWALD ST W
13F120616 15:21:22 911 HANG UP 1600 LAFAYETTE ST S & MURRAY ST
13F120619 15:21:26 46 DOMESTIC 2400 BARNHART AVE
13F120614 15:21:44 30 TRAFFIC STOP 2100 ENGLE RD & BLUFFTON RD
13F120622 15:22:31 63 CONTACT 2700 NORTHGATE BLVD
13F120618 15:23:18 30 TRAFFIC STOP 5900 ILLINOIS RD
13F120629 15:25:08 22I JUV INVEST 4100 BEAVERBROOK DR
13F120624 15:26:00 911 HANG UP 1700 DIRECTORS ROW
13F120621 15:26:05 38 LOST/STOLEN 5500 DECATUR RD
13F120623 15:26:56 40A AUDIBLE 1100 BROADWAY
13F120631 15:27:15 44FW 2000 OAKLAND ST
13F120625 15:27:28 44LM 6000 BUNT DR
13F120630 15:27:44 16,97 4300 OAKHURST DR
13F120626 15:29:12 11C CAGE CAR 00 MAIN ST E
13F120628 15:30:59 25 PD ACCIDENT 1400 WASHINGTON CENTER RD E & CLIN
13F120627 15:31:04 30 TRAFFIC STOP 4500 TAYLOR ST & WASHINGTON RD N
13F120634 15:39:32 1 MEET 9000 LIMA RD
13F120633 15:40:52 34 TRAFF HAZARD 8300 ILLINOIS RD
13F120635 15:45:56 48,36 200 COLISEUM BLVD E
13F120636 15:46:35 99 NARCOTICS 4400 COVENTRY PKWY
13F120638 15:48:49 46 DOMESTIC 3200 FELICIAN ST
13F120643 15:50:09 51 THEFT 1300 BROADWAY
13F120637 15:51:36 911 HANG UP 1600 WALL ST
13F120640 15:51:49 96 BATTERY 1800 HALE AVE
13F120645 15:53:35 50 BURGLARY 3600 INWOOD DR
13F120641 15:53:40 63 CONTACT 1800 SUMMER ST & NEW HAVEN AVE
13F120642 15:54:12 51,35 6000 BUNT DR
13F120639 15:55:47 25 PD ACCIDENT 11800 LIMA RD & CARROLL RD
13F120652 15:56:06 17 MOTOR CHECK 10200 COLDWATER RD
13F120644 16:08:12 103 UNWANTED 500 JEFFERSON BLVD W
13F120646 16:15:52 65T SUICIDE THR 1300 OAKLAND ST
13F120684 16:18:35 39 STOLEN VEHIC 2300 OLIVER ST
13F120648 16:20:05 911 HANG UP 7800 PRESTON POINTE DR
13F120649 16:24:30 22I JUV INVEST 6100 SAPPHIRE TRL
13F120650 16:25:26 37 PARKING VIOL 4300 WHALERS CV
13F120653 16:29:13 25 PD ACCIDENT 7100 ST JOE CENTER RD & GATE TREE
13F120656 16:30:20 50 BURGLARY 2200 FAIRFIELD AVE
13F120651 16:30:50 103 UNWANTED 2000 BROADWAY
13F120655 16:32:21 46 DOMESTIC 5400 BRIGHTON DR
13F120654 16:33:01 30 TRAFFIC STOP 3700 SMITH ST
13F120658 16:40:41 30 TRAFFIC STOP 5700 ILLINOIS RD & AVENUE OF AUTOS
13F120657 16:41:13 1 MEET 7300 MAPLECREST RD & ROTHMAN RD
13F120661 16:43:44 45 NEIGHBORHOOD 4900 ROTHMAN RD
13F120659 16:43:53 HARASSMENT 3500 CENTRAL DR
13F120660 16:45:48 27 RECKLESS DRI 30500 I 69 NB
13F120662 16:48:32 96 BATTERY 2500 LAKE AVE
13F120663 16:58:49 30 TRAFFIC STOP 1100 GARDEN ST
13F120664 16:58:50 46,96 2500 MINER ST
13F120680 17:01:02 17 MOTOR CHECK 7600 COVINGTON HOLLOW LN
13F120666 17:01:45 20 PROBLEM UNK 600 LEWIS ST E & HANNA ST S
13F120665 17:01:47 30 TRAFFIC STOP 2300 COLISEUM BLVD E & CRESCENT AV
13F120667 17:02:08 41,36 4700 CLINTON ST N & PARNELL AVE
13F120672 17:04:47 17 MOTOR CHECK 9500 LIMA RD
13F120669 17:06:11 911 HANG UP 2500 FOX AVE
13F120675 17:08:35 17 MOTOR CHECK 2300 MAPLEWOOD RD
13F120670 17:10:01 51 THEFT 400 DOWNING AVE
13F120671 17:10:26 911 HANG UP 400 WILLIAMS ST W
13F120673 17:12:42 129 4100 JEFFERSON BLVD W
13F120678 17:14:27 44LM 6600 PAWAWNA DR
13F120676 17:15:02 911 HANG UP 4800 DEVONSHIRE DR
13F120674 17:15:21 22I JUV INVEST 5300 COLDWATER RD
13F120677 17:16:07 33,34 100 JEFFERSON BLVD E & CALHOUN ST
13F120682 17:18:58 47 REMOVE ITEMS 5100 MACY LN
13F120703 17:19:47 23 VANDALISM 200 COUNTRY FOREST DR
13F120679 17:19:50 911 HANG UP 2100 EDEN ST
13F120683 17:24:44 22RN RUNAWAY 5500 WINTER ST
13F120681 17:24:52 25 PD ACCIDENT 6900 BAER RD & LOWER HUNTINGTON RD
13F120685 17:31:23 43 DISTURBANCE 1900 SHERMAN BLVD
13F120688 17:33:38 43 DISTURBANCE 900 LIBRARY PLAZA
13F120686 17:34:14 25HS HIT SKIP 4900 BLUFFTON RD
13F120687 17:34:24 51,35 1100 COLISEUM BLVD W
13F120689 17:36:11 911 HANG UP 9600 WOLF RIVER PL
13F120690 17:37:34 25 PD ACCIDENT 10100 COLDWATER RD & NORTHWEST PAS
13F120691 17:41:17 911 HANG UP 3000 FAIRFIELD AVE
13F120707 17:41:18 17 MOTOR CHECK 600 TENNESSEE AVE
13F120702 17:41:47 1 MEET 00 MAIN ST E
13F120692 17:46:34 129 4100 JEFFERSON BLVD W
13F120693 17:46:39 129 4100 JEFFERSON BLVD W
13F120694 17:47:26 16V PICKUP VID 00 MAIN ST E
13F120695 17:50:30 22I JUV INVEST 2700 MAPLE GROVE AVE E
13F120696 17:52:56 30 TRAFFIC STOP 30700 I 69 NB
13F120697 17:53:39 30 TRAFFIC STOP 30800 I 69 NB
13F120698 17:53:43 911 HANG UP 1000 HAMILTON AVE
13F120699 17:57:03 33J LOCKED OUT 2000 REED RD
13F120701 17:59:15 63 CONTACT 100 STATE BLVD E & CLINTON ST N
13F120700 18:00:45 911 HANG UP 4800 SPATZ AVE
13F120708 18:05:00 ATL 3000 CRESCENT AVE & VANCE AVE
13F120705 18:05:40 96JO 7300 DECATUR RD
13F120704 18:07:16 46,96 300 RUDISILL BLVD W
13F120706 18:09:16 48 SUSPICIOUS 3000 BELLAIRE DR & GETZ RD
13F120709 18:11:39 40 ALARM 2300 MCKINLEY AVE
13F120710 18:13:12 43 DISTURBANCE 2100 ST MARYS AVE
13F120714 18:21:24 22I JUV INVEST 4300 ROSEVIEW RD
13F120711 18:23:01 26 PI ACCIDENT 3400 BROADWAY
13F120715 18:26:59 37 PARKING VIOL 600 CHARLOTTE AVE & PARNELL AVE
13F120712 18:27:32 911 HANG UP 8500 LAKESIDE DR
13F120713 18:31:24 911 HANG UP 800 DREXEL AVE
13F120716 18:34:31 40A AUDIBLE 2600 MARCY LN
13F120717 18:35:41 911 HANG UP 4100 ELMCREST DR
13F120722 18:37:11 96JO 4500 WOODLYNN CT
13F120719 18:37:14 43 DISTURBANCE 5800 ANTHONY BLVD S
13F120718 18:38:03 23,35 VAND VEH 2400 ABBEY DR
13F120720 18:40:01 40A AUDIBLE 3300 FREEMAN ST
13F120721 18:44:27 911 HANG UP 1300 EWING ST
13F120724 18:44:43 102,TX THREATS 2200 BOWSER AVE
13F120723 18:45:30 27 RECKLESS DRI 31500 I 69 NB
13F120725 18:46:55 43 DISTURBANCE 1900 SHERMAN BLVD
13F120726 18:55:33 129 300 WAYNE ST W
13F120727 18:56:02 40A AUDIBLE 4800 KROEMER RD
13F120728 18:57:13 911 HANG UP 4900 LAFAYETTE ST S & DECATUR RD
13F120731 18:57:22 108 FOLLOWUP 4600 FAIRLAWN PASS
13F120729 19:04:05 33 DISABLED VEH 30900 I 69 SB
13F120759 19:04:30 16 PICK UP ITEM 1600 FOREST PARK BLVD
13F120730 19:06:19 37 PARKING VIOL 300 BAKER ST W & EWING ST
13F120732 19:13:39 911 HANG UP 4300 ANTHONY BLVD S
13F120733 19:21:05 30 TRAFFIC STOP 9300 US 30 W & STAHLHUT RD
13F120734 19:22:50 83 INFO REPORT 4900 BAHAMA LN
13F120735 19:23:00 23,35 VAND VEH 6500 PAWAWNA DR
13F120736 19:23:24 40 ALARM 3300 FREEMAN ST
13F120737 19:25:36 23JO 2700 LOWER HUNTINGTON RD & ELZEY S
13F120738 19:25:36 15 ASSIST 1800 OXFORD ST & EUCLID AVE
13F120739 19:26:26 25 PD ACCIDENT 8500 JEFFERSON BLVD W & COVENTRY L
13F120743 19:27:40 51JO 1200 FAIRFIELD AVE
13F120740 19:32:53 23IP VANDALISM 600 PUTNAM ST
13F120742 19:36:14 15 ASSIST 3600 HESSEN CASSEL RD
13F120741 19:37:28 14S SERVING WAR 500 TILLWATER LN
13F120746 19:40:08 43 DISTURBANCE 2500 MINER ST
13F120744 19:40:58 63Z ZACH CHECK 5100 EASTWICK DR
13F120745 19:41:19 48 SUSPICIOUS 200 MAIN ST E
13F120747 19:42:53 51,35 3800 PARNELL AVE & RIDGEWOOD DR
13F120748 19:44:13 911 HANG UP 900 PRANGE DR
13F120749 19:45:36 30 TRAFFIC STOP 3100 WINTER ST
13F120752 19:45:49 43 DISTURBANCE 1900 SHERMAN BLVD
13F120750 19:46:29 44FW 4500 PORTER DR
13F120751 19:47:26 63Z ZACH CHECK 1400 REED RD
13F120753 19:51:44 30 TRAFFIC STOP 600 PUTNAM ST
13F120754 19:59:35 43 DISTURBANCE 1200 DUPONT RD E
13F120755 20:00:44 28 DUI 3200 STELLHORN RD & ST JOE RD
13F120763 20:01:13 22I JUV INVEST 2300 PARK CREST DR
13F120760 20:01:20 40A AUDIBLE 10000 DUPONT CIRCLE CT
13F120756 20:01:52 911 HANG UP 200 PETTIT AVE E
13F120757 20:04:45 30 TRAFFIC STOP 10900 US 30 W & FELGER RD
13F120758 20:06:24 14S SERVING WAR 5700 BLISSFIELD CT
13F120761 20:09:17 TOW 1400 HARRISON ST S
13F120775 20:11:04 46 DOMESTIC 7400 COLD SPRINGS BLVD
13F120762 20:14:07 22I JUV INVEST 1800 SHERMAN BLVD & ARCHER AVE
13F120769 20:14:07 46 DOMESTIC 4400 TACOMA AVE
13F120765 20:14:15 911 HANG UP 8000 OKLAHOMA TRL
13F120764 20:15:59 66 MENTALLY ILL 1900 COLISEUM BLVD W & HARRIS RD
13F120770 20:18:10 911 HANG UP 3600 ST JOE CENTER RD
13F120766 20:18:38 30 TRAFFIC STOP 30800 I 69 NB
13F120768 20:19:43 40P PANIC ALARM 7600 MILL RUN DR
13F120767 20:19:54 30 TRAFFIC STOP 600 SHERWOOD TERR E & HANNA ST S
13F120772 20:25:46 51JO 5000 DECATUR RD
13F120771 20:26:28 51 THEFT 900 LIBRARY PLAZA
13F120773 20:27:03 30 TRAFFIC STOP 7800 US 30 W & O DAY RD
13F120774 20:29:43 911 HANG UP 1500 WOODSIDE AVE
13F120776 20:33:13 40 ALARM 3300 FREEMAN ST
13F120777 20:41:50 129 2100 LAKEWOOD DR
13F120778 20:45:34 48,36 1500 CALHOUN ST N & FOURTH ST E
13F120779 20:46:21 911 HANG UP 1500 WOODSIDE AVE
13F120780 20:47:39 30 TRAFFIC STOP 10900 US 30 W & FELGER RD
13F120781 20:53:12 30 TRAFFIC STOP 7300 HAWKSNEST TRL & ROTHMAN RD
13F120782 20:53:31 43 DISTURBANCE 2000 BROADWAY
13F120783 20:54:29 911 HANG UP 600 LEWIS ST E
13F120785 20:58:30 22I JUV INVEST 4300 WARSAW ST & SENATE AVE
13F120784 20:59:50 129 4500 MORNING WIND PL
13F120786 21:01:18 27 RECKLESS DRI 2200 COLISEUM BLVD N & STATE BLVD
13F120787 21:04:25 48 SUSPICIOUS 400 BUTLER ST W
13F120788 21:15:09 30 TRAFFIC STOP 9300 US 30 W & STAHLHUT RD
13F120789 21:19:13 911 HANG UP 1100 ELMWOOD AVE
13F120790 21:22:18 911 HANG UP 2500 MINER ST
13F120791 21:23:39 911 HANG UP 1000 LAKE AVE
13F120792 21:26:48 27 RECKLESS DRI 1000 DUPONT RD E
13F120795 21:27:15 1 MEET 600 LEWIS ST E
13F120793 21:27:37 23,35 VAND VEH 5900 STELLHORN RD
13F120794 21:28:40 30 TRAFFIC STOP 30500 I 69 NB
13F120796 21:32:56 911 HANG UP 4200 WINTER ST
13F120797 21:33:41 53 ARMED ROB 7000 EMBERS CT
13F120798 21:33:45 11C CAGE CAR 7500 SOUTHTOWN XING
13F120799 21:40:03 30 TRAFFIC STOP 10900 US 30 W & FELGER RD
13F120820 21:41:08 37 PARKING VIOL 5100 RIVIERA DR
13F120800 21:46:36 46 DOMESTIC 4700 DEERFIELD AVE
13F120801 21:49:31 911 HANG UP 4500 HESSEN CASSEL RD
13F120802 21:53:21 30 TRAFFIC STOP 10300 ILLINOIS RD
13F120811 21:57:59 46 DOMESTIC 1500 ST MARYS AVE & SPRING ST
13F120803 22:02:46 48 SUSPICIOUS 500 LAVINA ST
13F120804 22:04:44 129 6200 TOLBERT CT
13F120805 22:05:49 46 DOMESTIC 700 RUNNION AVE
13F120807 22:08:02 1 MEET 2700 PAULDING RD E
13F120806 22:09:21 30 TRAFFIC STOP 4500 COLONIAL AVE S & CAPITOL AVE
13F120808 22:13:55 113 SHOTS FIRED 4600 GAYWOOD DR & CAPITOL AVE
13F120809 22:15:26 80 CIVIL INVEST 6400 ST JOE RD
13F120810 22:19:07 40I INTRUSION 6700 COVINGTON RD
13F120812 22:24:05 30 TRAFFIC STOP 4200 HANNA ST S & MCKINNIE AVE
13F120813 22:24:24 911 HANG UP 900 MCKINNIE AVE
13F120815 22:24:41 EMS 6400 CLINTON ST N
13F120814 22:26:41 15 ASSIST 100 CREIGHTON AVE E & CALHOUN ST S
13F120816 22:30:43 911 HANG UP 1400 GREENE ST
13F120817 22:34:14 46 DOMESTIC 1500 HIGH ST
13F120819 22:34:30 25 PD ACCIDENT 10300 LIMA RD & DUPONT RD W
13F120822 22:38:45 43 DISTURBANCE 3000 SCHELE AVE
13F120821 22:38:48 30 TRAFFIC STOP 6900 JEFFERSON BLVD W & SOUTHBEND
13F120823 22:41:09 16V PICKUP VID 00 MAIN ST E
13F120824 22:41:11 16V PICKUP VID 00 MAIN ST E
13F120826 22:43:39 43 DISTURBANCE 2400 SOUTHWAYNE AVE
13F120831 22:44:10 ATL 1600 SHERMAN BLVD & HUFFMAN ST
13F120825 22:45:21 16V PICKUP VID 00 MAIN ST E
13F120838 22:46:50 22I JUV INVEST 3800 COLDWATER RD
13F120827 22:47:24 911 HANG UP 1900 CALHOUN ST S
13F120837 22:48:33 39R STOLEN RECO 2400 CASS ST
13F120829 22:48:50 48 SUSPICIOUS 1400 HARRISON ST N
13F120828 22:50:26 43 DISTURBANCE 1900 DREXEL AVE
13F120852 22:51:22 39R STOLEN RECO 2400 CASS ST
13F120853 22:52:07 39R STOLEN RECO 2400 CASS ST
13F120830 22:53:29 48,36 1000 SPRING ST & ST MARYS AVE
13F120832 22:55:28 129 2500 OAKWOOD DR
13F120833 22:56:23 30 TRAFFIC STOP 2900 SMITH ST & COLERICK ST
13F120834 22:57:13 33,34 600 COLISEUM BLVD W & VIRGINIA AVE
13F120835 23:02:34 EMS 5200 MCCLELLAN ST
13F120836 23:06:13 43 DISTURBANCE 5800 BUNT DR
13F120840 23:11:42 48 SUSPICIOUS 600 HUFFMAN ST
13F120839 23:11:45 30 TRAFFIC STOP 3600 BLUFFTON RD & BROOKLYN AVE
13F120841 23:13:31 22RN RUNAWAY 600 FALLEN TIMBERS TRL
13F120844 23:16:02 44LM 500 LAWTON PL
13F120842 23:21:34 51 THEFT 1400 PEMBERTON DR
13F120843 23:22:01 30 TRAFFIC STOP 1700 AIRPORT EXPRESSWAY
13F120845 23:23:01 43 DISTURBANCE 4600 GAYWOOD DR
13F120846 23:23:55 48,36 1700 WELLS ST & PUTNAM ST
13F120847 23:24:36 30 TRAFFIC STOP 9600 JEFFERSON BLVD W & ROLLING HI
13F120850 23:26:12 15 ASSIST 1000 COLISEUM BLVD W
13F120851 23:26:22 48 SUSPICIOUS 1400 HARRISON ST N
13F120848 23:27:10 48 SUSPICIOUS 7200 BAER RD
13F120849 23:27:16 48 SUSPICIOUS 1800 MAPLEWOOD RD & PINEDALE DR
13F120854 23:32:29 48 SUSPICIOUS 1800 MAPLEWOOD RD & PINEDALE DR
13F120858 23:33:57 44 NUISANCE 2400 FAIRFIELD AVE
13F120856 23:35:00 44 NUISANCE 1300 GREENE ST
13F120855 23:35:14 24 MISSING PERS 5600 PLAZA DR
13F120859 23:36:59 911 HANG UP 1300 TAYLOR ST
13F120857 23:37:41 129 2300 MAUMEE AVE
13F120860 23:39:24 911 HANG UP 2900 CENTRAL DR
13F120861 23:41:32 22I JUV INVEST 2800 STATE BLVD E & HOBSON DR
13F120862 23:44:50 43,62 2700 PAULDING RD E
13F120871 23:48:52 1 MEET 100 WASHINGTON BLVD W
13F120864 23:49:17 63 CONTACT 1500 GRIFFIN ST
13F120863 23:50:44 48 SUSPICIOUS 1400 HARRISON ST N
13F120865 23:53:45 48 SUSPICIOUS 700 EWING ST
13F120866 23:55:40 44 NUISANCE 2400 FAIRFIELD AVE
13F120874 23:55:58 44LM 1100 WAYNE ST W
13F120867 23:56:37 911 HANG UP 900 BROADWAY
13F120868 23:57:47 50IP BURG I/P 2100 FOX AVE & POPLAR ST
13F120869 23:59:39 23JO 1600 REED RD
13F120870 23:59:40 28 DUI 3100 HILLEGAS RD & BUTLER RD
Amber Alert

All-America City